User: anonymous   Login
Location: Unspecified
(0.0000°N, 0.0000°E)
Time: 13:41:22
(UTC+00:00)
Language:

Optus B1 - Orbit

View from above orbital plane
View from above orbital plane
View from above satellite
View from above satellite

Ground track
Ground track

The orbit data is extracted from the following two-line orbital elements,

1 22087U 92054A   18018.53509917 -.00000063 +00000-0 +00000-0 0  9996
2 22087 008.9914 044.2773 0002992 008.4998 170.3174 00.99202428104238
Epoch (UTC): 18 January 2018 12:50:32
Eccentricity: 0.0002992
inclination: 8.9914°
perigee height: 36076 km
apogee height: 36101 km
right ascension of ascending node: 44.2773°
argument of perigee: 8.4998°
revolutions per day: 0.99202428
mean anomaly at epoch: 170.3174°
orbit number at epoch: 10423

The dashed part of the orbit path shows where the satellite is in the earth's shadow,  

DLR